Stampede Pass, WA

7:47 PM PDT on August 18, 2017 (GMT -0700)
Stampede Pass | | Change Station

Elev 3967 ft 47.28 °N, 121.33 °W | Updated 51 minutes ago

Mostly Cloudy
Mostly Cloudy
55 °F
Feels Like 55 °F
N
8
Wind Variable Wind from West

Today
High -- | Low -- °F
--% Chance of Precip.
Yesterday
High -- | Low -- °F
Precip. -- in
Pressure 30.15 in
Visibility 10.0 miles
Clouds Mostly Cloudy 2000 ft
Mostly Cloudy 2600 ft
Dew Point 50 °F
Humidity 83%
Rainfall 0.00 in
Snow Depth Not available.
6:06 AM 8:10 PM
Waning Crescent, 9% visible
METAR KSMP 190156Z AUTO 27007KT 200V050 10SM BKN020 BKN026 13/10 A3018 RMK AO2 SLP210 T01280100
Pressure 30.15 in
Visibility 10.0 miles
Clouds Mostly Cloudy 2000 ft
Mostly Cloudy 2600 ft
Dew Point 50 °F
Humidity 83%
Rainfall 0.00 in
Snow Depth Not available.
6:06 AM 8:10 PM
Waning Crescent, 9% visible
METAR KSMP 190156Z AUTO 27007KT 200V050 10SM BKN020 BKN026 13/10 A3018 RMK AO2 SLP210 T01280100

Get Severe Weather Alerts

Thanks for signing up!

Be on the lookout for a verification email in your inbox.

You'll start receiving the daily forecast at 6 AM.

×

10-Day Weather Forecast

Almanac

Astronomy

Aug. 18, 2017 Rise Set
Actual Time
Civil Twilight
Nautical Twilight
Astronomical Twilight
Moon
Length of Visible Light
Length of Day
Tomorrow will be .
, % of the Moon is Illuminated

Today's Extremes

State Highs State Lows

Community

WunderPhotos

Category 6

Welcome to Category 6. This is the collective home for Weather Underground's featured writeups by Dr. Jeff Masters (right), Bob Henson (left), Chris Burt, and other regular contributors.

Nearby

Air Quality

  Air Quality AQ Index Pollutant
Not available.

Snow Depth

Station Depth Elevation

Earthquake Activity

City Distance Mag. Time & Date
Minimum magnitude displayed is 2.5.

Coastal Water Temperatures

Place Temperature

Stations

Nearby Weather Stations

Station Location Temp. Windchill Dew Point Humidity Wind Precip. Elev Updated Type
                   

Watches & Warnings

There are currently no watches in effect.